TimeCST,TemperatureF,Dew PointF,Humidity,Sea Level PressureIn,VisibilityMPH,Wind Direction,Wind SpeedMPH,Gust SpeedMPH,PrecipitationIn,Events,Conditions,WindDirDegrees,DateUTC
12:15 AM,32.0,12.2,44,30.01,10.0,SW,11.5,-,N/A,,Clear,220,2013-01-31 06:15:00
12:35 AM,30.2,12.2,47,30.01,10.0,SSW,10.4,-,N/A,,Clear,210,2013-01-31 06:35:00
12:55 AM,30.2,12.2,47,30.01,10.0,SW,10.4,-,N/A,,Clear,220,2013-01-31 06:55:00
1:15 AM,28.4,12.2,51,30.00,10.0,SSW,11.5,-,N/A,,Clear,210,2013-01-31 07:15:00
1:35 AM,28.4,14.0,55,30.00,10.0,SW,11.5,-,N/A,,Clear,220,2013-01-31 07:35:00
1:55 AM,26.6,15.8,64,30.00,10.0,SW,11.5,-,N/A,,Clear,230,2013-01-31 07:55:00
2:15 AM,28.4,17.6,64,30.00,10.0,WSW,11.5,-,N/A,,Clear,250,2013-01-31 08:15:00
2:35 AM,28.4,19.4,69,30.00,10.0,West,11.5,-,N/A,,Clear,260,2013-01-31 08:35:00
2:55 AM,30.2,21.2,69,30.00,10.0,West,12.7,-,N/A,,Clear,260,2013-01-31 08:55:00
3:15 AM,30.2,21.2,69,30.00,10.0,West,11.5,-,N/A,,Clear,270,2013-01-31 09:15:00
3:35 AM,30.2,21.2,69,30.00,10.0,West,11.5,-,N/A,,Clear,270,2013-01-31 09:35:00
3:55 AM,30.2,21.2,69,29.99,10.0,West,11.5,-,N/A,,Clear,270,2013-01-31 09:55:00
4:15 AM,28.4,21.2,74,30.00,10.0,West,12.7,-,N/A,,Clear,270,2013-01-31 10:15:00
4:35 AM,28.4,21.2,74,29.99,10.0,West,12.7,-,N/A,,Clear,280,2013-01-31 10:35:00
4:55 AM,28.4,21.2,74,29.99,10.0,West,11.5,-,N/A,,Clear,270,2013-01-31 10:55:00
5:15 AM,28.4,21.2,74,29.99,10.0,West,11.5,-,N/A,,Clear,270,2013-01-31 11:15:00
5:35 AM,28.4,21.2,74,30.00,10.0,West,13.8,-,N/A,,Clear,260,2013-01-31 11:35:00
5:55 AM,28.4,21.2,74,30.00,10.0,West,13.8,-,N/A,,Clear,270,2013-01-31 11:55:00
6:15 AM,28.4,21.2,74,30.00,10.0,West,12.7,-,N/A,,Clear,270,2013-01-31 12:15:00
6:35 AM,26.6,19.4,74,30.01,10.0,West,11.5,-,N/A,,Clear,270,2013-01-31 12:35:00
6:55 AM,28.4,19.4,69,30.01,10.0,West,11.5,-,N/A,,Clear,270,2013-01-31 12:55:00
7:15 AM,28.4,21.2,74,30.02,10.0,West,11.5,-,N/A,,Clear,280,2013-01-31 13:15:00
7:35 AM,28.4,19.4,69,30.03,10.0,West,9.2,-,N/A,,Clear,280,2013-01-31 13:35:00
7:55 AM,28.4,19.4,69,30.04,10.0,West,10.4,-,N/A,,Clear,270,2013-01-31 13:55:00
8:15 AM,30.2,21.2,69,30.04,10.0,West,11.5,-,N/A,,Clear,280,2013-01-31 14:15:00
8:35 AM,32.0,21.2,64,30.06,10.0,West,10.4,-,N/A,,Clear,280,2013-01-31 14:35:00
8:55 AM,32.0,23.0,69,30.07,10.0,West,10.4,-,N/A,,Clear,280,2013-01-31 14:55:00
9:15 AM,33.8,23.0,65,30.08,10.0,West,10.4,-,N/A,,Clear,280,2013-01-31 15:15:00
9:35 AM,35.6,21.2,56,30.08,10.0,West,10.4,-,N/A,,Clear,280,2013-01-31 15:35:00
9:55 AM,39.2,21.2,49,30.08,10.0,WNW,10.4,-,N/A,,Clear,290,2013-01-31 15:55:00
10:15 AM,41.0,21.2,45,30.11,10.0,WNW,12.7,-,N/A,,Clear,290,2013-01-31 16:15:00
10:35 AM,42.8,21.2,42,30.11,10.0,WNW,12.7,-,N/A,,Clear,290,2013-01-31 16:35:00
10:55 AM,44.6,21.2,39,30.11,10.0,West,8.1,-,N/A,,Clear,270,2013-01-31 16:55:00
11:15 AM,46.4,21.2,37,30.12,10.0,WNW,6.9,-,N/A,,Clear,290,2013-01-31 17:15:00
11:35 AM,50.0,21.2,32,30.11,10.0,WNW,6.9,-,N/A,,Clear,300,2013-01-31 17:35:00
11:55 AM,51.8,19.4,28,30.11,10.0,NW,10.4,-,N/A,,Clear,310,2013-01-31 17:55:00
12:15 PM,51.8,19.4,28,30.11,10.0,NW,12.7,-,N/A,,Clear,310,2013-01-31 18:15:00
12:35 PM,53.6,17.6,24,30.11,10.0,NNW,12.7,17.3,N/A,,Clear,330,2013-01-31 18:35:00
12:55 PM,55.4,19.4,25,30.09,10.0,NNE,12.7,-,N/A,,Clear,20,2013-01-31 18:55:00
1:15 PM,53.6,19.4,26,30.09,10.0,North,18.4,23.0,N/A,,Clear,360,2013-01-31 19:15:00
1:35 PM,55.4,17.6,23,30.10,10.0,NNE,15.0,19.6,N/A,,Clear,20,2013-01-31 19:35:00
1:55 PM,55.4,15.8,21,30.11,10.0,North,17.3,23.0,N/A,,Clear,360,2013-01-31 19:55:00
2:15 PM,53.6,17.6,24,30.10,10.0,North,19.6,24.2,N/A,,Clear,10,2013-01-31 20:15:00
2:35 PM,53.6,17.6,24,30.11,10.0,North,15.0,23.0,N/A,,Clear,10,2013-01-31 20:35:00
3:15 PM,51.8,17.6,26,30.12,10.0,NNE,16.1,20.7,N/A,,Clear,20,2013-01-31 21:15:00
3:35 PM,51.8,19.4,28,30.14,10.0,NE,15.0,21.9,N/A,,Clear,40,2013-01-31 21:35:00
3:55 PM,50.0,19.4,30,30.16,10.0,NE,13.8,18.4,N/A,,Clear,40,2013-01-31 21:55:00
4:15 PM,50.0,19.4,30,30.17,10.0,NE,15.0,-,N/A,,Clear,40,2013-01-31 22:15:00
4:35 PM,48.2,19.4,32,30.18,10.0,ENE,16.1,19.6,N/A,,Clear,60,2013-01-31 22:35:00
4:55 PM,46.4,19.4,34,30.19,10.0,NE,13.8,-,N/A,,Clear,50,2013-01-31 22:55:00
5:15 PM,46.4,19.4,34,30.21,10.0,ENE,12.7,-,N/A,,Clear,60,2013-01-31 23:15:00
5:35 PM,44.6,21.2,39,30.22,10.0,ENE,10.4,-,N/A,,Clear,70,2013-01-31 23:35:00
5:55 PM,42.8,21.2,42,30.22,10.0,East,8.1,-,N/A,,Clear,80,2013-01-31 23:55:00
6:15 PM,39.2,21.2,49,30.23,10.0,East,9.2,-,N/A,,Clear,90,2013-02-01 00:15:00
6:35 PM,35.6,21.2,56,30.23,10.0,East,8.1,-,N/A,,Clear,90,2013-02-01 00:35:00
7:15 PM,32.0,21.2,64,30.24,10.0,East,10.4,-,N/A,,Clear,90,2013-02-01 01:15:00
7:35 PM,32.0,21.2,64,30.24,10.0,East,11.5,-,N/A,,Clear,90,2013-02-01 01:35:00
8:15 PM,32.0,21.2,64,30.25,10.0,East,11.5,-,N/A,,Clear,90,2013-02-01 02:15:00
8:35 PM,32.0,23.0,69,30.24,10.0,East,12.7,-,N/A,,Clear,100,2013-02-01 02:35:00
9:15 PM,32.0,23.0,69,30.24,10.0,ESE,13.8,-,N/A,,Clear,110,2013-02-01 03:15:00
9:35 PM,30.2,23.0,75,30.24,10.0,ESE,13.8,-,N/A,,Clear,120,2013-02-01 03:35:00
9:55 PM,30.2,23.0,75,30.24,10.0,SE,15.0,-,N/A,,Clear,130,2013-02-01 03:55:00
10:15 PM,30.2,23.0,75,30.24,10.0,ESE,15.0,21.9,N/A,,Clear,120,2013-02-01 04:15:00
10:35 PM,28.4,21.2,74,30.24,10.0,SE,15.0,-,N/A,,Clear,130,2013-02-01 04:35:00
10:55 PM,28.4,21.2,74,30.25,10.0,SE,16.1,19.6,N/A,,Clear,130,2013-02-01 04:55:00
11:15 PM,26.6,21.2,80,30.26,10.0,SE,15.0,-,N/A,,Clear,140,2013-02-01 05:15:00